Regional Weather Roundup
Issued by NWS

Home | Current Version | Previous Version | Graphics & Text | Print | Product List | Glossary On
Versions: 1 2 3 4 5 6 7 8 9 10 11 12 13 14 15 16 17 18 19 20 21 22 23 24 25 26 27 28 29 30 31 32 33 34 35 36 37 38 39 40 41 42 43 44 45 46 47 48 49 50
000
ASUS45 KCYS 252310
RWRWY

WYOMING REGIONAL WEATHER ROUNDUP
NATIONAL WEATHER SERVICE CHEYENNE WY
400 PM MST TUE NOV 25 2014

NOTE:  "FAIR" INDICATES FEW OR NO CLOUDS BELOW 12,000 FEET
WITH NO SIGNIFICANT WEATHER AND/OR OBSTRUCTIONS TO VISIBILITY.

WYZ001-260000-
YELLOWSTONE NATIONAL PARK

CITY           SKY/WX    TMP DP  RH WIND       PRES   REMARKS
LK YELLOWSTONE   N/A     28  26  92 CALM      30.03R
W YELLOWSTONE  NOT AVBL

$$
WYZ002>013-054>058-071-098>099-260000-
NORTHERN WYOMING

CITY           SKY/WX    TMP DP  RH WIND       PRES   REMARKS
JACKSON        LGT SNOW  34  34 100 S9        30.04R VSB 1   WCI  26
CODY           CLOUDY    30  28  93 N6        29.99R WCI  24
GREYBULL       LGT SNOW  32  31  96 W10       29.99R VSB 3/4 WCI  24
WORLAND        LGT SNOW  32  30  92 W9        30.00R VSB 1   WCI  24
SHERIDAN       SNOW      30  28  92 NW24G31   30.03R VSB 1/2 WCI  16
BUFFALO        HVY SNOW  30  27  88 N40G49    29.96R VSB 1/4 WCI  13
GILLETTE       LGT SNOW  31  28  89 NW17      29.93R VSB 1   WCI  19
HULETT           N/A    N/A N/A N/A MISG        N/A
NEWCASTLE      MIX PCPN  32  30  93 NW17G25   29.87R WCI  21

$$
WYZ014>020-022>026-101>103-260000-
CENTRAL WYOMING

CITY           SKY/WX    TMP DP  RH WIND       PRES   REMARKS
BIG PINEY      CLOUDY   N/A N/A N/A NW13      30.07R
PINEDALE       LGT SNOW  30  30 100 NW5       30.08R WCI  25
DUBOIS         LGT SNOW  32  30  93 N16G25    29.94R WCI  21
LANDER         CLOUDY    44  22  41 NE7       29.92R
RIVERTON       MOCLDY    43  29  57 NW22G31   29.92R
CASPER         CLOUDY    32  26  78 N15       29.94R WCI  22
DOUGLAS        LGT SNOW N/A N/A N/A N10G21    29.94R

$$
WYZ021-027>030-104>119-260000-
SOUTHERN WYOMING

CITY           SKY/WX    TMP DP  RH WIND       PRES   REMARKS
EVANSTON       MIX PCPN  32  29  88 SW31G40   30.20F WCI  17
FORT BRIDGER   CLOUDY    35  31  84 W23G36    30.19S WCI  23
ROCK SPRINGS   CLOUDY    37  27  67 W29G38    30.08S WCI  25
DIXON          CLOUDY    32  22  65 SW21G31   30.13R WCI  20
RAWLINS        CLEAR     36  26  67 W32G46    29.97R WCI  23
SARATOGA       CLOUDY    34  25  69 W30G43    30.01R WCI  20
LARAMIE        PTCLDY    33  21  61 W38G51    29.89R WCI  18
CHEYENNE       PTCLDY    41  22  46 W30G47    29.85R
TORRINGTON     LGT RAIN  35  32  88 NW9       29.89R WCI  28
PINE BLUFFS    CLOUDY    45  23  42 NW31G39   29.86R

$$



USA.gov is the U.S. government's official web portal to all federal, state and local government web resources and services.